This is the latest recevied weather packets stored in our database for station/object W5GBS-9. If no packets are shown the sender has not sent any weather packets the latest 10 day(s).
| Time | Temp. | Humidity | Pressure | Rain* | Wind** | Luminosity | Snow |
|---|---|---|---|---|---|---|---|
| 1788002957 | 23.33° C | 100% | 1014.8 hPa | 0 mm | - | - | - |
| 1788002236 | 23.33° C | 100% | 1014.8 hPa | 0 mm | - | - | - |
| 1788001515 | 23.33° C | 100% | 1014.9 hPa | 0 mm | - | - | - |
| 1788000794 | 23.33° C | 100% | 1014.8 hPa | 0 mm | - | - | - |
| 1788000073 | 23.33° C | 100% | 1014.9 hPa | 0 mm | - | - | - |
| 1787999353 | 23.89° C | 100% | 1014.8 hPa | 0 mm | - | - | - |
| 1787998633 | 23.89° C | 100% | 1014.8 hPa | 0 mm | - | - | - |
| 1787997914 | 23.89° C | 100% | 1014.8 hPa | 0 mm | - | - | - |
| 1787995749 | 24.44° C | 100% | 1014.5 hPa | 0 mm | - | - | - |
| 1787995029 | 24.44° C | 100% | 1014.4 hPa | 0 mm | - | - | - |
| 1787994309 | 25° C | 100% | 1014.7 hPa | 0 mm | - | - | - |
| 1787993587 | 25° C | 100% | 1014.7 hPa | 0 mm | - | - | - |
| 1787992867 | 25° C | 100% | 1014.5 hPa | 0 mm | - | - | - |
| 1787991426 | 25.56° C | 100% | 1014.5 hPa | 0 mm | - | - | - |
| 1787990705 | 25.56° C | 100% | 1014.5 hPa | 0 mm | - | - | - |
| 1787989984 | 26.11° C | 100% | 1014.5 hPa | 0 mm | - | - | - |
| 1787989264 | 26.11° C | 100% | 1014.8 hPa | 0 mm | - | - | - |
| 1787988543 | 26.67° C | 100% | 1015 hPa | 0 mm | - | - | - |
| 1787987822 | 26.67° C | 100% | 1015.2 hPa | 0 mm | - | - | - |
| 1787987102 | 26.67° C | 100% | 1015.1 hPa | 0 mm | - | - | - |
| 1787986381 | 27.22° C | 100% | 1015.2 hPa | 0 mm | - | - | - |
| 1787984939 | 27.78° C | 100% | 1015.2 hPa | 0 mm | - | - | - |
| 1787983499 | 27.78° C | 100% | 1015 hPa | 0 mm | - | - | - |
| 1787981336 | 27.22° C | 100% | 1014.8 hPa | 0 mm | - | - | - |
| 1787980615 | 27.22° C | 100% | 1014.9 hPa | 0 mm | - | - | - |
* Rain latest hour (hover to see other rain measurements)
** Current wind speed in m/s (hover to see current wind gust speed)